{"data":{"norad_id":69445,"intl_designator":"2026-127C","name":"STARLINK-37641","alt_names":[],"object_type":"PAYLOAD","status":"ACTIVE","operator":null,"country":"US","launch_date":"2026-06-08","launch_site_code":"AFETR","launch_vehicle":null,"mission":null,"orbit_class":"UNKNOWN","rcs_meters":null,"size_class":null,"mass_kg":null,"dimensions":null,"purposes":["comms"],"wikipedia_slug":null,"has_3d_model":false,"image_url":null,"decayed_at":null,"tle_current":{"epoch":"2026-09-20T03:58:54.395040Z","epoch_age_seconds":55522,"freshness":"FRESH","line1":"1 69445U 26127C   26263.16590735  .00019167  00000+0  57654-3 0  9994","line2":"2 69445  53.1567 167.0780 0001020  72.9281 287.1833 15.34422624 16145","mean_motion":15.34422624,"eccentricity":0.000102,"inclination_deg":53.1567,"raan_deg":167.078,"arg_perigee_deg":72.9281,"mean_anomaly_deg":287.1833,"bstar":0.00057654,"rev_number":1614,"period_min":93.84637436107,"perigee_km":461.93823889176,"apogee_km":463.3337565833,"semimajor_km":6840.7729977375,"source":"CELESTRAK","updated_at":"2026-09-20T09:00:44.199050Z"}}}